x

Valley (03302) Weather Station

10:00 - Sat 31st Jan 2015 All times are GMT.

  • Wind
    36mph, 49mph gusts
  • Air Temp 41°f
  • Sea Pressure 1000mb
  • Valley
  • Valley

More Historic Weather Station data

Upgrade to MSW Pro to gain access to the past 30 days of data for over 8000 Wavebouys and Weather Stations around the globe.

Join Pro

Comparision Forecast

View Surf forecast
   
sam. 01/31 10:00 36 49 mph 1000mb 41f
9:00 31 48 mph 1000mb 41f
8:00 30 47 mph 999mb 40f
7:00 30 46 mph 998mb 42f
6:00 30 44 mph 998mb 41f
5:00 29 40 mph 996mb 42f
4:00 28 43 mph 995mb 43f
3:00 26 44 mph 994mb 43f
2:00 29 47 mph 993mb 43f
1:00 29 43 mph 992mb 44f
12:00 28 41 mph 991mb 44f
11:00 28 40 mph 991mb 44f
10:00 28 43 mph 989mb 43f
9:00 26 40 mph 988mb 43f
8:00 28 39 mph 986mb 43f
7:00 25 43 mph 985mb 43f
6:00 29 41 mph 984mb 43f
5:00 26 46 mph 982mb 42f
4:00 30 43 mph 982mb 42f
3:00 30 43 mph 982mb 42f
2:00 24 38 mph 981mb 42f
1:00 24 37 mph 981mb 41f
12:00 24 36 mph 981mb 41f
ven. 01/30 11:00 21 33 mph 981mb 41f
10:00 23 32 mph 981mb 40f
9:00 22 31 mph 980mb 40f
8:00 22 30 mph 981mb 40f
7:00 19 31 mph 981mb 41f
6:00 19 29 mph 981mb 41f
5:00 16 29 mph 981mb 41f
4:00 21 29 mph 981mb 42f
3:00 19 30 mph 982mb 44f
2:00 19 30 mph 982mb 44f
1:00 18 30 mph 982mb 44f
12:00 18
mph
982mb 43f
11:00 19 30 mph 982mb 44f
10:00 21 32 mph 982mb 44f
9:00 19 29 mph 981mb 43f
8:00 18 29 mph 981mb 43f
7:00 11
mph
981mb 41f
6:00 16
mph
981mb 42f
5:00 15
mph
980mb 40f
4:00 16 38 mph 979mb 39f
3:00 26 39 mph 977mb 40f
2:00 26 38 mph 974mb 41f
1:00 29 51 mph 971mb 40f
12:00 37 54 mph 973mb 41f
jeu. 01/29 11:00 32 45 mph 975mb 41f
10:00 30 41 mph 977mb 41f
9:00 25 39 mph 978mb 40f
8:00 29 40 mph 979mb 40f
7:00 24 38 mph 979mb 39f
6:00 25 39 mph 979mb 39f
5:00 24 39 mph 979mb 40f
4:00 25
mph
979mb 40f
3:00 25
mph
979mb 39f
2:00 23 34 mph 979mb 38f
1:00 25 34 mph 980mb 38f
12:00 21 29 mph 980mb 36f
11:00 22 40 mph 982mb 33f
10:00 28 39 mph 982mb 39f
9:00 29 45 mph 983mb 39f
8:00 28 45 mph 985mb 40f
7:00 28 43 mph 986mb 41f
6:00 29 39 mph 987mb 40f
5:00 29 45 mph 988mb 40f
4:00 29 45 mph 990mb 40f
3:00 30 44 mph 991mb 40f
2:00 31 46 mph 993mb 41f
1:00 26 41 mph 994mb 40f
12:00 29 49 mph 995mb 40f
mer. 01/28 11:00 33 49 mph 995mb 40f
10:00 31 47 mph 996mb 41f
9:00 34 49 mph 997mb 41f
8:00 31 47 mph 998mb 40f
7:00 31 47 mph 999mb 41f
6:00 29 40 mph 1000mb 40f
5:00 31 46 mph 1000mb 40f
4:00 30 44 mph 1001mb 41f
3:00 32 47 mph 1001mb 42f
2:00 29 44 mph 1001mb 41f
1:00 36 48 mph 1002mb 41f
12:00 33 48 mph 1002mb 41f
11:00 34 48 mph 1001mb 41f
10:00 32 54 mph 1000mb 41f
9:00 37 52 mph 1000mb 43f
8:00 32 45 mph 1000mb 46f
7:00 28 46 mph 999mb 49f
6:00 30 41 mph 1001mb 49f
5:00 30 40 mph 1002mb 49f
4:00 26 33 mph 1005mb 48f
3:00 25 36 mph 1007mb 48f
2:00 24 37 mph 1009mb 48f
1:00 28 36 mph 1011mb 48f
12:00 28 36 mph 1013mb 47f